Volver al catálogo

STARLINK-30924

ActivoComunicacionesVLEO
NORAD 58412·PAYLOAD·🇺🇸 United States

Lanzado Nov 22, 2023 desde Cape Canaveral Space Force Station

Loading…

Próximos Pases (próximas 24 horas)

TLE

ActualizadoSource: CelesTrak SupGP

Época: Sep 14, 2026, 22:42 UTC

1 58412C 23180L   26257.94631944  .00216970  00000+0  87682-3 0  2571
2 58412  42.9811 237.8679 0027362 135.4595 153.3823 15.84601043    19

Sigue STARLINK-30924 en tiempo real con AllMySat

Download on the App Store